Iron Mountain, MI

8:08 PM CDT on August 20, 2017 (GMT -0500)
Ford

Weather History for KIMT - June, 2011

Change the Weather History Date:

Friday, June 17, 2011

  Actual Average Record
Temperature  
Mean Temperature 64 °F -  
Max Temperature 77 °F 72 °F 95 °F (1987)
Min Temperature 53 °F 49 °F 34 °F (1950)
Degree Days  
Heating Degree Days 1    
Growing Degree Days 14 (Base 50)    
Moisture  
Dew Point 56 °F    
Average Humidity 83    
Maximum Humidity 100    
Minimum Humidity 51    
Precipitation  
Precipitation 0.00 in - - ()
Sea Level Pressure  
Sea Level Pressure 29.89 in    
Wind  
Wind Speed 1 mph (East)    
Max Wind Speed 9 mph    
Max Gust Speed -    
Visibility 6 miles    
Events Fog    
Averages and records for this station are not official NWS values.
T = Trace of Precipitation, MM = Missing Value Source: NWS Daily Summary

Daily Weather History Graph

Daily Weather History Graph

Search for Another Location

Airport or City:

Trip Planner

Search our weather history database for the weather conditions in past years. The results will help you decide how hot, cold, wet, or windy it might be!

Date:

Astronomy

Jun. 17, 2011 Rise Set
Actual Time 5:01 AM CDT 8:44 PM CDT
Civil Twilight 4:23 AM CDT 9:23 PM CDT
Nautical Twilight 3:31 AM CDT 10:14 PM CDT
Astronomical Twilight 2:20 AM CDT 11:26 PM CDT
Moon 10:16 PM CDT (6/17) 6:52 AM CDT (6/17)
Length of Visible Light 16h 59m
Length of Day
15h 43m
Waning Gibbous, 96% of the Moon is Illuminated
Jun 17
Waning Gibbous
Jun 23
Last Quarter
Jul 1
New
Jul 8
First Quarter
Jul 15
Full

Hourly Weather History & Observations

Time (CDT) Temp. Dew Point Humidity Pressure Visibility Wind Dir Wind Speed Gust Speed Precip Events Conditions
12:54 AM 61.0 °F 59.0 °F 93% 29.84 in 10.0 mi Calm Calm - N/A   Mostly Cloudy
1:54 AM 57.9 °F 57.0 °F 97% 29.84 in 7.0 mi North 3.5 mph - N/A   Clear
2:44 AM 57.2 °F 55.4 °F 94% 29.86 in 1.8 mi Calm Calm - N/A   Partly Cloudy
2:51 AM 55.4 °F 55.4 °F 100% 29.86 in 3.0 mi Calm Calm - N/A   Partly Cloudy
2:54 AM 55.0 °F 55.0 °F 100% 29.86 in 2.0 mi Calm Calm - N/A   Partly Cloudy
2:58 AM 55.4 °F 53.6 °F 94% 29.86 in 0.8 mi Calm Calm - N/A   Partly Cloudy
3:13 AM 55.4 °F 55.4 °F 100% 29.86 in 1.0 mi Calm Calm - N/A   Mostly Cloudy
3:22 AM 55.4 °F 55.4 °F 100% 29.86 in 0.5 mi Calm Calm - N/A Fog Fog
3:52 AM 53.6 °F 53.6 °F 100% 29.87 in 0.2 mi Calm Calm - N/A Fog Fog
3:54 AM 54.0 °F 54.0 °F 100% 29.88 in 0.2 mi Calm Calm - N/A Fog Fog
4:18 AM 55.4 °F 55.4 °F 100% 29.87 in 0.5 mi Calm Calm - N/A Fog Fog
4:29 AM 55.4 °F 55.4 °F 100% 29.87 in 1.2 mi Calm Calm - N/A   Overcast
4:38 AM 55.4 °F 55.4 °F 100% 29.88 in 1.2 mi Calm Calm - N/A   Overcast
4:44 AM 55.4 °F 55.4 °F 100% 29.89 in 3.0 mi Calm Calm - N/A   Overcast
4:54 AM 55.9 °F 55.9 °F 100% 29.90 in 1.8 mi Calm Calm - N/A   Overcast
5:18 AM 57.2 °F 55.4 °F 94% 29.90 in 2.0 mi Calm Calm - N/A   Overcast
5:27 AM 57.2 °F 57.2 °F 100% 29.90 in 3.0 mi Calm Calm - N/A   Overcast
5:54 AM 57.0 °F 57.0 °F 100% 29.92 in 4.0 mi Calm Calm - N/A   Overcast
6:54 AM 57.9 °F 57.9 °F 100% 29.91 in 5.0 mi NNW 3.5 mph - N/A   Mostly Cloudy
7:16 AM 59.0 °F 57.2 °F 94% 29.91 in 6.0 mi Calm Calm - N/A   Scattered Clouds
7:54 AM 62.1 °F 57.0 °F 84% 29.91 in 10.0 mi Calm Calm - N/A   Partly Cloudy
8:54 AM 64.9 °F 55.0 °F 70% 29.91 in 10.0 mi NNW 3.5 mph - N/A   Clear
9:54 AM 69.1 °F 55.9 °F 63% 29.88 in 10.0 mi ESE 3.5 mph - N/A   Clear
10:54 AM 71.1 °F 57.0 °F 61% 29.88 in 10.0 mi SE 4.6 mph - N/A   Clear
11:54 AM 73.9 °F 57.0 °F 55% 29.88 in 10.0 mi Variable 3.5 mph - N/A   Clear
12:54 PM 75.0 °F 57.0 °F 53% 29.87 in 10.0 mi ESE 9.2 mph - N/A   Partly Cloudy
1:54 PM 73.9 °F 57.9 °F 57% 29.90 in 10.0 mi South 5.8 mph - N/A   Mostly Cloudy
2:54 PM 73.0 °F 59.0 °F 61% 29.91 in 10.0 mi Calm Calm - N/A   Scattered Clouds
3:54 PM 73.9 °F 57.0 °F 55% 29.89 in 10.0 mi Variable 3.5 mph - N/A   Partly Cloudy
5:54 PM 75.9 °F 57.9 °F 54% 29.88 in 10.0 mi ENE 3.5 mph - N/A   Clear
6:54 PM 75.0 °F 55.9 °F 51% 29.90 in 10.0 mi SE 3.5 mph - N/A   Clear
7:54 PM 72.0 °F 55.0 °F 55% 29.91 in 10.0 mi ESE 5.8 mph - N/A   Clear
8:54 PM 66.9 °F 55.9 °F 68% 29.91 in 10.0 mi East 4.6 mph - N/A   Clear
9:54 PM 62.1 °F 55.9 °F 80% 29.93 in 10.0 mi Calm Calm - N/A   Clear
10:54 PM 62.1 °F 54.0 °F 75% 29.93 in 10.0 mi ENE 5.8 mph - N/A   Clear
11:54 PM 57.0 °F 55.0 °F 93% 29.94 in 10.0 mi North 3.5 mph - N/A   Clear